Location: Buckeye Ditch
(40.9104°N, 122.9517°W)
Time: 12:13:59
(UTC+00:00)

Explorer 7 - Pass Details

Date: 22 May 2025
Orbit: 445 x 571 km, 50.3° (Epoch: 22 June)

Event Time Altitude Azimuth Distance (km) Brightness Sun altitude
Rises 16:05:15 0° 299° (WNW) 2,651 9.9 35.1°
Reaches altitude 10° 16:07:29 10° 292° (WNW) 1,781 9.0 35.5°
Maximum altitude 16:11:21 42° 221° (SW) 779 7.7 36.2°
Drops below altitude 10° 16:15:19 10° 150° (SSE) 1,835 10.0 37.0°
Sets 16:17:40 0° 143° (SE) 2,742 10.9 37.4°
